EDT,Max TemperatureF,Mean TemperatureF,Min TemperatureF,Max Dew PointF,MeanDew PointF,Min DewpointF,Max Humidity, Mean Humidity, Min Humidity, Max Sea Level PressureIn, Mean Sea Level PressureIn, Min Sea Level PressureIn, Max VisibilityMiles, Mean VisibilityMiles, Min VisibilityMiles, Max Wind SpeedMPH, Mean Wind SpeedMPH, Max Gust SpeedMPH,PrecipitationIn, CloudCover, Events, WindDirDegrees
2013-8-1,86,78,71,73,71,69,95,85,56,30.04,29.97,29.90,12,10,6,12,5,14,0.00,5,Rain,220
2013-8-2,88,80,74,76,73,70,95,83,56,30.05,30.00,29.95,12,8,3,8,3,,0.00,5,Rain-Thunderstorm,229
2013-8-3,90,82,73,75,73,69,100,81,49,30.06,30.03,29.95,12,10,3,10,7,17,0.01,4,,223
2013-8-4,88,78,68,71,68,62,95,74,46,30.05,29.98,29.93,12,9,1,13,4,23,0.00,1,,2
2013-8-5,86,75,66,66,63,58,95,68,40,30.10,30.06,30.01,12,10,6,9,4,,0.00,3,,136
2013-8-6,81,74,68,68,65,62,92,75,55,30.10,30.07,30.01,12,12,9,13,4,,0.00,4,Rain,173
2013-8-7,87,78,69,70,68,64,93,75,48,30.13,30.09,30.04,12,12,9,12,4,15,0.00,5,,140
2013-8-8,90,78,68,71,69,67,96,75,48,30.10,30.07,30.03,12,10,3,8,4,,0.00,3,,176
2013-8-9,92,83,74,74,72,70,95,70,47,30.10,30.07,30.03,12,12,7,14,8,18,0.00,2,,216
2013-8-10,96,84,74,75,72,69,94,75,44,30.14,30.10,30.04,12,12,6,13,7,22,0.00,3,Rain-Thunderstorm,215
2013-8-11,95,83,71,74,71,69,96,71,43,30.14,30.09,30.04,12,11,7,14,5,21,0.00,1,,285
2013-8-12,95,84,72,74,71,66,93,69,39,30.08,30.02,29.97,12,11,3,9,4,15,0.07,1,Rain-Thunderstorm,298
2013-8-13,93,82,72,77,73,69,95,80,48,29.99,29.90,29.82,12,12,7,17,6,24,0.05,3,Rain-Thunderstorm,247
2013-8-14,79,74,68,72,66,63,95,76,65,30.10,29.98,29.86,12,12,12,12,5,16,0.00,4,Rain,25
2013-8-15,77,70,63,62,58,55,87,69,50,30.16,30.12,30.08,12,12,12,10,5,16,0.00,4,,42
2013-8-16,69,65,61,62,60,59,93,82,68,30.18,30.14,30.10,12,12,12,7,4,,0.00,4,Rain,6
2013-8-17,,,,,,,,,,,,,,,,,,,,,,
2013-8-18,74,74,73,70,70,70,88,87,86,30.19,30.19,30.19,7,7,7,5,4,,0.00,6,,35
2013-8-19,77,72,68,72,69,68,100,92,83,30.19,30.15,30.12,12,9,2,8,5,,0.96,7,Rain,42
2013-8-20,85,78,69,73,71,68,100,86,58,30.21,30.16,30.13,12,12,8,7,3,,0.06,6,Rain,37
2013-8-21,87,78,70,75,72,69,100,89,62,30.26,30.20,30.15,12,7,0,20,5,40,0.50,5,Fog-Rain-Thunderstorm,31
2013-8-22,89,78,69,75,70,68,100,86,51,30.17,30.13,30.03,12,6,0,12,3,17,0.01,4,Fog,276
2013-8-23,89,80,71,73,70,67,100,81,47,30.08,30.02,29.97,12,9,1,14,5,20,0.00,3,,296
2013-8-24,84,75,67,68,63,57,87,70,40,30.31,30.19,30.08,12,12,10,13,8,20,0.00,4,,31
2013-8-25,80,70,60,63,58,51,97,70,37,30.40,30.34,30.30,12,12,9,13,6,18,0.00,0,,29
2013-8-26,84,68,54,61,55,46,97,67,28,30.33,30.25,30.15,12,12,9,10,3,,0.00,0,,327
2013-8-27,88,73,58,71,64,56,96,73,47,30.16,30.06,30.00,12,11,2,7,3,,0.00,1,,298
2013-8-28,90,78,68,74,70,66,100,83,50,30.02,29.98,29.94,12,6,2,7,2,,0.00,1,Rain,236
2013-8-29,91,82,75,73,71,68,89,73,52,30.02,29.93,29.90,12,10,5,13,7,20,0.00,3,Rain,326
2013-8-30,89,78,69,70,66,61,95,75,40,30.08,30.03,29.96,12,9,2,9,5,,0.00,3,,67
2013-8-31,89,76,65,73,68,64,100,82,47,30.01,29.98,29.90,12,8,0,9,3,13,0.00,4,Fog,199